Погода в Работках

Россия / Нижегородская область     56°02′27″N   44°36′28″E
темп.,
°C
ветер,
м/с
пор.,
м/с
влажн.,
%
обл.,
%
осадки,
мм/ч
давл.,
гПа
погр.,
м
16 сентября, чт
чт1600:00+8зсз4792100 0.6 1009401
03:00+8зсз4792100 1.3 1010344
06:00+6с368386 0.1 1012321
09:00+7ссз576896 0.1 1013685
12:00+9ссз576297 0.0 10141134
15:00+9ссз5753100 0.0 10151327
18:00+9ссз5753100 0.0 1016591
21:00+8сз3758100 0.0 1016365
17 сентября, пт
пт1700:00+7сз3767100 0.0 1017350
03:00+6зсз3772100 0.1 1017336
06:00+6зсз3576100 0.1 1017461
09:00+8сз556285 0.3 10171292
12:00+10ссз564499 0.3 10171922
15:00+9ссз5545100 0.3 10181579
18:00+8сз3649100 0.0 1018394
21:00+6сз366296 0.0 1019170
18 сентября, сб
сб1800:00+2сз34795 0.0 102056
03:00+1сз35945 0.0 1021100
06:00+1сз2595100 0.0 1022107
09:00+5ссз3683100 0.0 1023614
12:00+8с346994 0.3 1023999
15:00+8с554990 0.4 10241348
18:00+4ссв23625 0.0 102546
21:00+2ссв11725 0.0 102610
19 сентября, вс
вс1900:00+1сз11785 0.0 102610
03:000ссз1181100 0.0 102610
06:000св1187100 0.0 102710
09:00+5ссв2362100 0.0 1027435
12:00+8св2246100 0.0 1026978
15:00+9всв2242100 0.0 10251059
18:00+6всв2252100 0.0 102518
21:00+5всв3359100 0.0 102545
20 сентября, пн
пн2000:00+4в2462100 0.0 102576
03:00+4в4967100 0.0 1024269
06:00+4всв4973100 0.0 1025359
09:00+5в61067100 0.1 1025615
12:00+7в81160100 0.0 10241090
15:00+5в81280100 0.6 1024895
18:00+4в81595100 2.3 1024756
21:00+5в81493100 3.6 1024659